Weather History for Goshen, IN

Change the Weather History Date:

Saturday, June 16, 2012

  Actual Average Record
Temperature  
Mean Temperature 80 °F -  
Max Temperature 95 °F 79 °F 95 °F (2012)
Min Temperature 66 °F 58 °F 41 °F (1961)
Cooling Degree Days 14    
Growing Degree Days 30 (Base 50)    
Moisture  
Dew Point 60 °F    
Average Humidity 54    
Maximum Humidity 71    
Minimum Humidity 32    
Precipitation  
Precipitation 0.00 in - - ()
Sea Level Pressure  
Sea Level Pressure 30.04 in    
Wind  
Wind Speed 8 mph (South)    
Max Wind Speed 18 mph    
Max Gust Speed 28 mph    
Visibility 10 miles    
Events Rain , Thunderstorm    
Averages and records for this station are not official NWS values.
T = Trace of Precipitation, MM = Missing Value Source: NWS Daily Summary

Daily Weather History Graph

Daily Weather History Graph

Search for Another Location

Airport:

Trip Planner

Search our weather history database for the weather conditions in past years. The results will help you decide how hot, cold, wet, or windy it might be!

Date:

Astronomy

Jun. 16, 2012 Rise Set
Actual Time 6:08 AM EDT 9:19 PM EDT
Civil Twilight 5:34 AM EDT 9:53 PM EDT
Nautical Twilight 4:50 AM EDT 10:37 PM EDT
Astronomical Twilight 3:58 AM EDT 11:29 PM EDT
Moon 3:58 AM EDT (6/16) 6:53 PM EDT (6/16)
Length of Visible Light 16h 18m
Length of Day
15h 10m
Waning Crescent, 8% of the Moon is Illuminated
Jun 16
Waning Crescent
Jun 19
New
Jun 26
First Quarter
Jul 3
Full
Jul 10
Last Quarter

Hourly Weather History & Observations

Time (EDT) Temp. Heat Index Dew Point Humidity Pressure Visibility Wind Dir Wind Speed Gust Speed Precip Events Conditions
12:53 AM 71.1 °F - 52.0 °F 51% 30.08 in 10.0 mi ESE 9.2 mph - N/A   Clear
1:53 AM 70.0 °F - 55.9 °F 61% 30.08 in 10.0 mi SE 6.9 mph - N/A   Clear
2:53 AM 68.0 °F - 57.0 °F 68% 30.08 in 10.0 mi SE 5.8 mph - N/A   Clear
3:53 AM 68.0 °F - 57.0 °F 68% 30.08 in 10.0 mi SE 4.6 mph - N/A   Clear
4:53 AM 68.0 °F - 55.9 °F 65% 30.09 in 10.0 mi SE 5.8 mph - N/A   Clear
5:53 AM 66.9 °F - 55.9 °F 68% 30.10 in 10.0 mi SE 3.5 mph - N/A   Clear
6:53 AM 66.9 °F - 57.0 °F 70% 30.11 in 10.0 mi SE 4.6 mph - N/A   Clear
7:53 AM 72.0 °F - 60.1 °F 66% 30.12 in 10.0 mi SE 5.8 mph - N/A   Clear
8:53 AM 75.9 °F - 62.1 °F 62% 30.12 in 10.0 mi SE 6.9 mph - N/A   Clear
9:53 AM 81.0 °F 82.2 °F 63.0 °F 54% 30.10 in 10.0 mi SSE 9.2 mph - N/A   Clear
10:53 AM 84.9 °F 86.1 °F 64.0 °F 49% 30.09 in 10.0 mi SSE 8.1 mph - N/A   Clear
11:53 AM 87.1 °F 88.3 °F 64.0 °F 46% 30.09 in 10.0 mi SSE 11.5 mph - N/A   Clear
12:53 PM 91.0 °F 91.9 °F 63.0 °F 39% 30.07 in 10.0 mi South 10.4 mph - N/A   Clear
1:53 PM 91.9 °F 91.8 °F 61.0 °F 35% 30.05 in 10.0 mi South 9.2 mph 20.7 mph N/A   Partly Cloudy
2:53 PM 93.0 °F 92.3 °F 59.0 °F 32% 30.01 in 10.0 mi South 10.4 mph 20.7 mph N/A   Partly Cloudy
3:53 PM 91.0 °F 89.7 °F 57.0 °F 32% 30.00 in 10.0 mi South 12.7 mph 21.9 mph N/A   Partly Cloudy
4:53 PM 91.0 °F 90.0 °F 57.9 °F 33% 29.98 in 10.0 mi SSW 11.5 mph - N/A   Scattered Clouds
5:25 PM 89.6 °F 88.9 °F 59.0 °F 36% 30.00 in 10.0 mi South 13.8 mph - N/A Thunderstorm Mostly Cloudy
5:44 PM 75.2 °F - 64.4 °F 69% 30.02 in 8.0 mi WSW 18.4 mph 27.6 mph 0.00 in Rain Light Rain
5:53 PM 75.0 °F - 64.9 °F 71% 30.00 in 10.0 mi WSW 12.7 mph - 0.00 in Rain Light Rain
6:53 PM 81.0 °F 81.9 °F 62.1 °F 52% 29.96 in 10.0 mi South 11.5 mph - 0.00 in   Clear
7:53 PM 82.0 °F 82.7 °F 61.0 °F 49% 29.95 in 10.0 mi SSW 8.1 mph - N/A   Clear
8:53 PM 81.0 °F 81.9 °F 62.1 °F 52% 29.94 in 10.0 mi South 5.8 mph - N/A   Clear
9:53 PM 78.1 °F - 62.1 °F 58% 29.95 in 10.0 mi South 4.6 mph - 0.00 in   Clear
10:53 PM 79.0 °F - 64.0 °F 60% 29.95 in 10.0 mi SSW 11.5 mph - N/A   Clear
11:53 PM 75.9 °F - 60.1 °F 58% 29.94 in 10.0 mi SW 18.4 mph - N/A   Clear